Time,TemperatureF,DewpointF,PressureIn,WindDirection,WindDirectionDegrees,WindSpeedMPH,WindSpeedGustMPH,Humidity,HourlyPrecipIn,Conditions,Clouds,dailyrainin,SoftwareType,DateUTC
2013-06-25 00:11:00,84.0,44.0,29.98,SW,226,9.0,12.0,25,-99.99,,,-99.99,,2013-06-25 06:11:00,
2013-06-25 01:22:00,80.0,42.0,29.98,West,280,7.0,8.0,26,-99.99,,,-99.99,,2013-06-25 07:22:00,
2013-06-25 02:43:00,76.0,39.0,29.99,WSW,244,8.0,9.0,27,-99.99,,,-99.99,,2013-06-25 08:43:00,
2013-06-25 03:12:00,74.0,38.0,29.99,WSW,239,8.0,9.0,27,-99.99,,,-99.99,,2013-06-25 09:12:00,
2013-06-25 04:11:00,74.0,36.0,30.00,SSW,213,5.0,7.0,25,-99.99,,,-99.99,,2013-06-25 10:11:00,
2013-06-25 04:42:00,74.0,35.0,30.02,South,184,9.0,10.0,24,-99.99,,,-99.99,,2013-06-25 10:42:00,
2013-06-25 05:02:00,73.0,36.0,30.02,South,182,9.0,13.0,26,-99.99,,,-99.99,,2013-06-25 11:02:00,
2013-06-25 05:43:00,73.0,39.0,30.04,SSW,192,9.0,10.0,29,-99.99,,,-99.99,,2013-06-25 11:43:00,
2013-06-25 06:11:00,71.0,37.0,30.04,WSW,237,8.0,10.0,28,-99.99,,,-99.99,,2013-06-25 12:11:00,
2013-06-25 06:43:00,69.0,34.0,30.05,WSW,250,7.0,9.0,28,-99.99,,,-99.99,,2013-06-25 12:43:00,
2013-06-25 07:42:00,74.0,29.0,30.06,SW,235,5.0,7.0,19,-99.99,,,-99.99,,2013-06-25 13:42:00,
2013-06-25 08:11:00,78.0,28.0,30.07,SW,218,5.0,5.0,16,-99.99,,,-99.99,,2013-06-25 14:11:00,
2013-06-25 08:43:00,83.0,29.0,30.07,West,270,5.0,6.0,14,-99.99,,,-99.99,,2013-06-25 14:43:00,
2013-06-25 09:11:00,85.0,29.0,30.08,NW,309,8.0,10.0,13,-99.99,,,-99.99,,2013-06-25 15:11:00,
2013-06-25 09:22:00,86.0,27.0,30.08,NW,304,8.0,12.0,12,-99.99,,,-99.99,,2013-06-25 15:22:00,
2013-06-25 10:35:00,89.0,30.0,30.08,WNW,292,12.0,17.0,12,-99.99,,,-99.99,,2013-06-25 16:35:00,
2013-06-25 10:44:00,90.0,30.0,30.08,WNW,296,13.0,20.0,12,-99.99,,,-99.99,,2013-06-25 16:44:00,
2013-06-25 11:11:00,91.0,32.0,30.08,WNW,297,14.0,17.0,12,-99.99,,,-99.99,,2013-06-25 17:11:00,
2013-06-25 11:44:00,92.0,32.0,30.07,WNW,285,10.0,15.0,12,-99.99,,,-99.99,,2013-06-25 17:44:00,
2013-06-25 12:44:00,94.0,32.0,30.06,West,275,8.0,12.0,11,-99.99,,,-99.99,,2013-06-25 18:44:00,
2013-06-25 13:12:00,96.0,33.0,30.06,WNW,296,10.0,15.0,11,-99.99,,,-99.99,,2013-06-25 19:12:00,
2013-06-25 13:44:00,96.0,33.0,30.05,WNW,293,13.0,18.0,11,-99.99,,,-99.99,,2013-06-25 19:44:00,
2013-06-25 14:42:00,98.0,35.0,30.04,WNW,286,16.0,21.0,11,-99.99,,,-99.99,,2013-06-25 20:42:00,
2013-06-25 14:52:00,98.0,37.0,30.04,West,269,14.0,20.0,12,-99.99,,,-99.99,,2013-06-25 20:52:00,
2013-06-25 16:11:00,98.0,35.0,30.01,WNW,291,14.0,22.0,11,-99.99,,,-99.99,,2013-06-25 22:11:00,
2013-06-25 16:42:00,98.0,35.0,30.00,NW,314,3.0,7.0,11,-99.99,,,-99.99,,2013-06-25 22:42:00,
2013-06-25 17:11:00,98.0,35.0,29.98,West,281,13.0,17.0,11,-99.99,,,-99.99,,2013-06-25 23:11:00,
2013-06-25 17:43:00,99.0,35.0,29.97,WNW,289,13.0,20.0,11,-99.99,,,-99.99,,2013-06-25 23:43:00,
2013-06-25 18:11:00,99.0,35.0,29.96,NW,306,14.0,17.0,11,-99.99,,,-99.99,,2013-06-26 00:11:00,
2013-06-25 18:22:00,98.0,35.0,29.96,NW,305,12.0,17.0,11,-99.99,,,-99.99,,2013-06-26 00:22:00,
2013-06-25 18:33:00,97.0,34.0,29.96,NW,319,14.0,21.0,11,-99.99,,,-99.99,,2013-06-26 00:33:00,
2013-06-25 19:11:00,97.0,34.0,29.96,NW,310,12.0,15.0,11,-99.99,,,-99.99,,2013-06-26 01:11:00,
2013-06-25 19:43:00,96.0,33.0,29.97,West,274,3.0,6.0,11,-99.99,,,-99.99,,2013-06-26 01:43:00,
2013-06-25 20:11:00,95.0,32.0,29.97,NW,314,14.0,18.0,11,-99.99,,,-99.99,,2013-06-26 02:11:00,
2013-06-25 20:43:00,93.0,28.0,29.97,NW,310,10.0,13.0,10,-99.99,,,-99.99,,2013-06-26 02:43:00,
2013-06-25 21:11:00,91.0,27.0,29.98,NW,315,10.0,12.0,10,-99.99,,,-99.99,,2013-06-26 03:11:00,
2013-06-25 21:33:00,89.0,25.0,29.99,NW,310,8.0,10.0,10,-99.99,,,-99.99,,2013-06-26 03:33:00,
2013-06-25 21:52:00,87.0,24.0,29.99,NW,311,8.0,9.0,10,-99.99,,,-99.99,,2013-06-26 03:52:00,
2013-06-25 22:12:00,86.0,23.0,30.00,WNW,302,8.0,10.0,10,-99.99,,,-99.99,,2013-06-26 04:12:00,
2013-06-25 22:33:00,84.0,24.0,30.00,WNW,295,6.0,8.0,11,-99.99,,,-99.99,,2013-06-26 04:33:00,
2013-06-25 22:43:00,83.0,23.0,30.00,WNW,292,7.0,8.0,11,-99.99,,,-99.99,,2013-06-26 04:43:00,
2013-06-25 23:11:00,81.0,22.0,30.00,WNW,289,7.0,9.0,11,-99.99,,,-99.99,,2013-06-26 05:11:00,